| time (UTC) | temp F | wind direction | speed knots | gust knots | rain 1hr in | rain 24hr in | rain mn in | humidity % | barometer mb |
| 20260831082642 | 70 | 72 | 1.7 | 5.2 | 0.00 | 0.00 | 0.00 | 75 | 1011.1 |
| 20260831081629 | 71 | 90 | 1.7 | 3.5 | 0.00 | 0.00 | 0.00 | 75 | 1011.1 |
| 20260831081123 | 71 | 74 | 1.7 | 3.5 | 0.00 | 0.00 | 0.00 | 75 | 1011.1 |
| 20260831080616 | 71 | 57 | 2.6 | 3.5 | 0.00 | 0.00 | 0.00 | 74 | 1011.1 |
| 20260831075604 | 71 | 34 | 1.7 | 3.5 | 0.00 | 0.00 | 0.00 | 74 | 1011.1 |
| 20260831075056 | 70 | 108 | 1.7 | 3.5 | 0.00 | 0.00 | 0.00 | 75 | 1011.1 |
| 20260831074044 | 70 | 40 | 2.6 | 2.6 | 0.00 | 0.00 | 0.00 | 75 | 1011.1 |
| 20260831073538 | 70 | 109 | 1.7 | 1.7 | 0.00 | 0.00 | 0.00 | 75 | 1011.1 |
| 20260831073031 | 71 | 141 | 0.9 | 2.6 | 0.00 | 0.00 | 0.00 | 75 | 1010.7 |
| 20260831072524 | 71 | 17 | 1.7 | 2.6 | 0.00 | 0.00 | 0.00 | 75 | 1010.7 |
| 20260831071511 | 70 | 80 | 0.9 | 2.6 | 0.00 | 0.00 | 0.00 | 76 | 1010.7 |
| 20260831071005 | 70 | 17 | 0.9 | 2.6 | 0.00 | 0.00 | 0.00 | 76 | 1010.7 |
| 20260831070459 | 70 | 11 | 0.9 | 3.5 | 0.00 | 0.00 | 0.00 | 76 | 1010.7 |
| 20260831065952 | 70 | 0 | 0.9 | 3.5 | 0.00 | 0.00 | 0.00 | 76 | 1010.7 |
| 20260831065446 | 70 | 342 | 0.0 | 2.6 | 0.00 | 0.00 | 0.00 | 77 | 1010.7 |
| 20260831064938 | 70 | 121 | 1.7 | 2.6 | 0.00 | 0.00 | 0.00 | 77 | 1010.7 |
| 20260831064432 | 70 | 147 | 1.7 | 2.6 | 0.00 | 0.00 | 0.00 | 77 | 1010.7 |
| 20260831063926 | 70 | 54 | 0.9 | 3.5 | 0.00 | 0.00 | 0.00 | 78 | 1010.7 |
| 20260831063420 | 70 | 58 | 2.6 | 3.5 | 0.00 | 0.00 | 0.00 | 79 | 1010.7 |
| 20260831062406 | 70 | 104 | 0.9 | 2.6 | 0.00 | 0.00 | 0.00 | 79 | 1010.7 |
| 20260831061900 | 70 | 116 | 1.7 | 2.6 | 0.00 | 0.00 | 0.00 | 79 | 1010.7 |
| 20260831061354 | 70 | 238 | 0.9 | 3.5 | 0.00 | 0.00 | 0.00 | 79 | 1010.7 |
| 20260831060847 | 70 | 245 | 0.0 | 3.5 | 0.00 | 0.00 | 0.00 | 80 | 1010.7 |
| 20260831060340 | 70 | 171 | 1.7 | 3.5 | 0.00 | 0.00 | 0.00 | 80 | 1010.7 |
| 20260831055834 | 70 | 224 | 0.9 | 3.5 | 0.00 | 0.00 | 0.00 | 81 | 1010.7 |
| 20260831055327 | 70 | 188 | 1.7 | 3.5 | 0.00 | 0.00 | 0.00 | 81 | 1010.7 |
| 20260831054315 | 70 | 193 | 1.7 | 2.6 | 0.00 | 0.00 | 0.00 | 82 | 1010.7 |
| 20260831053808 | 70 | 184 | 2.6 | 3.5 | 0.00 | 0.00 | 0.00 | 82 | 1010.7 |
| 20260831053302 | 70 | 192 | 2.6 | 3.5 | 0.00 | 0.00 | 0.00 | 82 | 1010.7 |
| 20260831052248 | 70 | 261 | 0.0 | 3.5 | 0.00 | 0.00 | 0.00 | 82 | 1010.7 |
| 20260831051742 | 70 | 256 | 0.0 | 3.5 | 0.00 | 0.00 | 0.00 | 82 | 1010.7 |
| 20260831051236 | 70 | 188 | 2.6 | 3.5 | 0.00 | 0.00 | 0.00 | 82 | 1010.7 |
| 20260831050729 | 70 | 156 | 1.7 | 3.5 | 0.00 | 0.00 | 0.00 | 82 | 1010.7 |
| 20260831050223 | 70 | 230 | 1.7 | 5.2 | 0.00 | 0.00 | 0.00 | 81 | 1010.7 |
| 20260831044704 | 71 | 201 | 1.7 | 3.5 | 0.00 | 0.00 | 0.00 | 80 | 1010.7 |
| 20260831043650 | 71 | 231 | 0.9 | 1.7 | 0.00 | 0.00 | 0.00 | 79 | 1010.7 |
| 20260831042131 | 71 | 231 | 0.9 | 1.7 | 0.00 | 0.00 | 0.00 | 79 | 1010.4 |
| 20260831041624 | 71 | 218 | 1.7 | 2.6 | 0.00 | 0.00 | 0.00 | 79 | 1010.7 |
| 20260831041118 | 71 | 241 | 0.9 | 2.6 | 0.00 | 0.00 | 0.00 | 79 | 1010.4 |
| 20260831040105 | 71 | 267 | 0.9 | 2.6 | 0.00 | 0.00 | 0.00 | 78 | 1010.4 |
| 20260831035559 | 71 | 215 | 1.7 | 3.5 | 0.00 | 0.00 | 0.00 | 78 | 1010.4 |
| 20260831035051 | 71 | 209 | 1.7 | 3.5 | 0.00 | 0.00 | 0.00 | 78 | 1010.4 |
| 20260831034545 | 71 | 254 | 0.9 | 2.6 | 0.00 | 0.00 | 0.00 | 78 | 1010.1 |
| 20260831034039 | 71 | 212 | 1.7 | 2.6 | 0.00 | 0.00 | 0.00 | 79 | 1010.1 |
| 20260831033532 | 71 | 197 | 2.6 | 2.6 | 0.00 | 0.00 | 0.00 | 79 | 1010.1 |
| 20260831033025 | 71 | 233 | 1.7 | 2.6 | 0.00 | 0.00 | 0.00 | 79 | 1009.7 |
| 20260831032519 | 71 | 241 | 1.7 | 3.5 | 0.00 | 0.00 | 0.00 | 79 | 1009.7 |
| 20260831032012 | 71 | 208 | 1.7 | 3.5 | 0.00 | 0.00 | 0.00 | 79 | 1010.1 |
| 20260831031506 | 71 | 210 | 1.7 | 3.5 | 0.00 | 0.00 | 0.00 | 79 | 1009.7 |
| 20260831031000 | 71 | 238 | 1.7 | 3.5 | 0.00 | 0.00 | 0.00 | 79 | 1009.7 |
| 20260831030454 | 71 | 230 | 0.9 | 3.5 | 0.00 | 0.00 | 0.00 | 79 | 1009.7 |
| 20260831025946 | 71 | 250 | 1.7 | 3.5 | 0.00 | 0.00 | 0.00 | 79 | 1009.4 |
| 20260831025440 | 72 | 220 | 3.5 | 3.5 | 0.00 | 0.00 | 0.00 | 78 | 1009.7 |
| 20260831023922 | 72 | 222 | 1.7 | 3.5 | 0.00 | 0.00 | 0.00 | 79 | 1009.4 |
| 20260831023414 | 72 | 197 | 2.6 | 3.5 | 0.00 | 0.00 | 0.00 | 79 | 1009.4 |
| 20260831022907 | 72 | 208 | 2.6 | 3.5 | 0.00 | 0.00 | 0.00 | 79 | 1009.4 |
| 20260831022400 | 73 | 235 | 1.7 | 3.5 | 0.00 | 0.00 | 0.00 | 78 | 1009.4 |
| 20260831021854 | 73 | 211 | 3.5 | 3.5 | 0.00 | 0.00 | 0.00 | 77 | 1009.4 |
| 20260831021348 | 73 | 217 | 2.6 | 6.1 | 0.00 | 0.00 | 0.00 | 76 | 1009.4 |
| 20260831020841 | 74 | 227 | 1.7 | 6.1 | 0.00 | 0.00 | 0.00 | 76 | 1009.4 |
| 20260831020334 | 74 | 253 | 1.7 | 5.2 | 0.00 | 0.00 | 0.00 | 75 | 1009.4 |
| 20260831015828 | 74 | 201 | 3.5 | 3.5 | 0.00 | 0.00 | 0.00 | 74 | 1009.4 |
| 20260831015322 | 74 | 214 | 1.7 | 5.2 | 0.00 | 0.00 | 0.00 | 74 | 1009.0 |
| 20260831014815 | 74 | 228 | 2.6 | 5.2 | 0.00 | 0.00 | 0.00 | 74 | 1009.4 |
| 20260831014308 | 75 | 194 | 2.6 | 6.1 | 0.00 | 0.00 | 0.00 | 74 | 1009.4 |
| 20260831013802 | 75 | 224 | 1.7 | 7.0 | 0.00 | 0.00 | 0.00 | 73 | 1009.4 |
| 20260831013256 | 75 | 350 | 2.6 | 7.8 | 0.00 | 0.00 | 0.00 | 73 | 1009.4 |
| 20260831012750 | 75 | 217 | 4.3 | 7.8 | 0.00 | 0.00 | 0.00 | 71 | 1009.4 |
| 20260831011736 | 76 | 253 | 4.3 | 7.0 | 0.00 | 0.00 | 0.00 | 70 | 1009.4 |
| 20260831011229 | 76 | 200 | 2.6 | 7.0 | 0.00 | 0.00 | 0.00 | 69 | 1009.4 |
| 20260831010723 | 76 | 233 | 7.0 | 7.0 | 0.00 | 0.00 | 0.00 | 69 | 1009.4 |
| 20260831010217 | 76 | 225 | 4.3 | 7.0 | 0.00 | 0.00 | 0.00 | 69 | 1009.4 |
| 20260831005709 | 76 | 262 | 2.6 | 8.7 | 0.00 | 0.00 | 0.00 | 71 | 1009.4 |
| 20260831004150 | 76 | 245 | 4.3 | 8.7 | 0.00 | 0.00 | 0.00 | 72 | 1009.4 |
| 20260831003644 | 76 | 262 | 3.5 | 8.7 | 0.00 | 0.00 | 0.00 | 73 | 1009.4 |
| 20260831002631 | 75 | 258 | 6.1 | 11.3 | 0.00 | 0.00 | 0.00 | 74 | 1009.4 |
| 20260831002124 | 75 | 231 | 6.1 | 11.3 | 0.00 | 0.00 | 0.00 | 73 | 1009.4 |
| 20260831001618 | 76 | 228 | 5.2 | 12.2 | 0.00 | 0.00 | 0.00 | 72 | 1009.4 |
| 20260831001112 | 76 | 220 | 8.7 | 12.2 | 0.00 | 0.00 | 0.00 | 71 | 1009.4 |
| 20260831000604 | 76 | 269 | 4.3 | 11.3 | 0.00 | 0.00 | 0.00 | 72 | 1009.4 |
| 20260831000058 | 76 | 247 | 4.3 | 11.3 | 0.00 | 0.00 | 0.00 | 72 | 1009.4 |
| 20260830235552 | 77 | 257 | 6.1 | 11.3 | 0.00 | 0.00 | 0.00 | 71 | 1009.4 |
| 20260830235046 | 77 | 218 | 8.7 | 11.3 | 0.00 | 0.00 | 0.00 | 70 | 1009.4 |
| 20260830234538 | 77 | 216 | 5.2 | 12.2 | 0.00 | 0.00 | 0.00 | 69 | 1009.4 |
| 20260830233526 | 77 | 222 | 4.3 | 9.6 | 0.00 | 0.00 | 0.00 | 69 | 1009.7 |
| 20260830233020 | 78 | 243 | 8.7 | 9.6 | 0.00 | 0.00 | 0.00 | 69 | 1009.4 |
| 20260830232512 | 78 | 235 | 5.2 | 11.3 | 0.00 | 0.00 | 0.00 | 67 | 1009.4 |
| 20260830231500 | 79 | 252 | 7.0 | 12.2 | 0.00 | 0.00 | 0.00 | 68 | 1009.4 |
| 20260830230953 | 79 | 211 | 7.8 | 9.6 | 0.00 | 0.00 | 0.00 | 68 | 1009.7 |
| 20260830230447 | 79 | 197 | 7.0 | 11.3 | 0.00 | 0.00 | 0.00 | 67 | 1009.7 |
| 20260830225940 | 80 | 232 | 8.7 | 11.3 | 0.00 | 0.00 | 0.00 | 66 | 1009.7 |
| 20260830225434 | 80 | 232 | 6.1 | 9.6 | 0.00 | 0.00 | 0.00 | 64 | 1009.7 |
| 20260830224927 | 80 | 238 | 8.7 | 9.6 | 0.00 | 0.00 | 0.00 | 63 | 1009.7 |
| 20260830224421 | 80 | 241 | 5.2 | 9.6 | 0.00 | 0.00 | 0.00 | 64 | 1009.7 |
| 20260830223913 | 80 | 281 | 5.2 | 9.6 | 0.00 | 0.00 | 0.00 | 64 | 1009.7 |
| 20260830223407 | 80 | 224 | 7.0 | 9.6 | 0.00 | 0.00 | 0.00 | 64 | 1010.1 |
| 20260830222901 | 80 | 238 | 5.2 | 11.3 | 0.00 | 0.00 | 0.00 | 62 | 1010.1 |
| 20260830222354 | 80 | 219 | 9.6 | 12.2 | 0.00 | 0.00 | 0.00 | 61 | 1010.1 |
| 20260830221848 | 80 | 203 | 7.0 | 9.6 | 0.00 | 0.00 | 0.00 | 63 | 1010.1 |
| 20260830221342 | 79 | 202 | 5.2 | 11.3 | 0.00 | 0.00 | 0.00 | 65 | 1010.1 |
| 20260830220834 | 79 | 223 | 6.1 | 11.3 | 0.00 | 0.00 | 0.00 | 64 | 1010.1 |
| 20260830220328 | 79 | 224 | 6.1 | 11.3 | 0.00 | 0.00 | 0.00 | 65 | 1010.4 |
| 20260830215315 | 80 | 223 | 6.1 | 11.3 | 0.00 | 0.00 | 0.00 | 66 | 1010.4 |
| 20260830214808 | 81 | 251 | 6.1 | 11.3 | 0.00 | 0.00 | 0.00 | 65 | 1010.4 |
| 20260830214302 | 81 | 278 | 5.2 | 9.6 | 0.00 | 0.00 | 0.00 | 62 | 1010.7 |
| 20260830213248 | 80 | 252 | 7.0 | 11.3 | 0.00 | 0.00 | 0.00 | 65 | 1010.7 |
| 20260830212742 | 80 | 251 | 4.3 | 11.3 | 0.00 | 0.00 | 0.00 | 66 | 1010.7 |
| 20260830212236 | 80 | 193 | 6.1 | 11.3 | 0.00 | 0.00 | 0.00 | 64 | 1010.7 |
| 20260830211729 | 81 | 217 | 4.3 | 11.3 | 0.00 | 0.00 | 0.00 | 61 | 1010.7 |
| 20260830210716 | 81 | 229 | 7.8 | 11.3 | 0.00 | 0.00 | 0.00 | 61 | 1010.7 |
| 20260830210210 | 80 | 214 | 6.1 | 9.6 | 0.00 | 0.00 | 0.00 | 63 | 1011.1 |
| 20260830205157 | 80 | 202 | 6.1 | 12.2 | 0.00 | 0.00 | 0.00 | 63 | 1011.1 |
| 20260830204650 | 80 | 240 | 7.8 | 12.2 | 0.00 | 0.00 | 0.00 | 62 | 1010.7 |
| 20260830204144 | 80 | 233 | 7.8 | 13.0 | 0.00 | 0.00 | 0.00 | 61 | 1011.1 |
| 20260830203637 | 81 | 235 | 10.4 | 13.0 | 0.00 | 0.00 | 0.00 | 63 | 1011.1 |
| 20260830203130 | 80 | 257 | 6.1 | 12.2 | 0.00 | 0.00 | 0.00 | 63 | 1011.1 |
| 20260830202624 | 80 | 279 | 6.1 | 12.2 | 0.00 | 0.00 | 0.00 | 63 | 1011.1 |
| 20260830202117 | 81 | 213 | 6.1 | 11.3 | 0.00 | 0.00 | 0.00 | 61 | 1011.1 |
| 20260830201610 | 82 | 252 | 5.2 | 11.3 | 0.00 | 0.00 | 0.00 | 61 | 1011.1 |
| 20260830201104 | 81 | 264 | 7.0 | 11.3 | 0.00 | 0.00 | 0.00 | 62 | 1011.1 |
| 20260830200558 | 81 | 246 | 3.5 | 9.6 | 0.00 | 0.00 | 0.00 | 63 | 1011.1 |
| 20260830195544 | 80 | 37 | 6.1 | 9.6 | 0.00 | 0.00 | 0.00 | 63 | 1011.1 |
| 20260830195038 | 81 | 215 | 7.0 | 11.3 | 0.00 | 0.00 | 0.00 | 62 | 1011.1 |
| 20260830194532 | 81 | 234 | 3.5 | 11.3 | 0.00 | 0.00 | 0.00 | 63 | 1011.1 |
| 20260830194026 | 80 | 227 | 4.3 | 11.3 | 0.00 | 0.00 | 0.00 | 64 | 1011.1 |
| 20260830193518 | 81 | 244 | 7.8 | 8.7 | 0.00 | 0.00 | 0.00 | 63 | 1011.1 |
| 20260830193012 | 80 | 301 | 4.3 | 9.6 | 0.00 | 0.00 | 0.00 | 64 | 1011.4 |
| 20260830192506 | 79 | 237 | 4.3 | 12.2 | 0.00 | 0.00 | 0.00 | 64 | 1011.4 |
| 20260830191452 | 79 | 230 | 8.7 | 12.2 | 0.00 | 0.00 | 0.00 | 65 | 1011.4 |
| 20260830190946 | 80 | 221 | 9.6 | 13.9 | 0.00 | 0.00 | 0.00 | 61 | 1011.4 |
| 20260830190440 | 80 | 223 | 7.8 | 13.9 | 0.00 | 0.00 | 0.00 | 63 | 1011.8 |
| 20260830185426 | 80 | 272 | 8.7 | 9.6 | 0.00 | 0.00 | 0.00 | 63 | 1011.4 |
| 20260830184919 | 80 | 257 | 3.5 | 9.6 | 0.00 | 0.00 | 0.00 | 65 | 1011.4 |
| 20260830184413 | 80 | 249 | 7.8 | 9.6 | 0.00 | 0.00 | 0.00 | 63 | 1011.4 |
| 20260830183400 | 80 | 297 | 5.2 | 12.2 | 0.00 | 0.00 | 0.00 | 61 | 1011.4 |
| 20260830182854 | 80 | 234 | 3.5 | 9.6 | 0.00 | 0.00 | 0.00 | 60 | 1011.4 |
| 20260830182347 | 80 | 249 | 6.1 | 11.3 | 0.00 | 0.00 | 0.00 | 61 | 1011.8 |
| 20260830181334 | 81 | 245 | 4.3 | 9.6 | 0.00 | 0.00 | 0.00 | 61 | 1011.4 |
| 20260830180828 | 82 | 240 | 4.3 | 8.7 | 0.00 | 0.00 | 0.00 | 60 | 1011.8 |
| 20260830180321 | 82 | 221 | 6.1 | 7.8 | 0.00 | 0.00 | 0.00 | 60 | 1011.8 |
| 20260830175814 | 83 | 231 | 5.2 | 7.8 | 0.00 | 0.00 | 0.00 | 59 | 1011.4 |
| 20260830175308 | 85 | 273 | 5.2 | 6.1 | 0.00 | 0.00 | 0.00 | 55 | 1011.4 |
| 20260830174802 | 85 | 260 | 0.9 | 6.1 | 0.00 | 0.00 | 0.00 | 52 | 1011.4 |
| 20260830174255 | 85 | 160 | 4.3 | 5.2 | 0.00 | 0.00 | 0.00 | 51 | 1011.4 |
| 20260830173748 | 83 | 7 | 0.0 | 3.5 | 0.00 | 0.00 | 0.00 | 54 | 1011.4 |
| 20260830173242 | 83 | 55 | 1.7 | 5.2 | 0.00 | 0.00 | 0.00 | 54 | 1011.4 |
| 20260830172735 | 83 | 119 | 2.6 | 5.2 | 0.00 | 0.00 | 0.00 | 55 | 1011.4 |
| 20260830172228 | 83 | 184 | 3.5 | 3.5 | 0.00 | 0.00 | 0.00 | 56 | 1011.4 |
| 20260830171723 | 81 | 241 | 0.9 | 6.1 | 0.00 | 0.00 | 0.00 | 58 | 1011.1 |
| 20260830171216 | 82 | 257 | 3.5 | 6.1 | 0.00 | 0.00 | 0.00 | 59 | 1011.4 |
| 20260830170202 | 82 | 142 | 3.5 | 6.1 | 0.00 | 0.00 | 0.00 | 59 | 1011.4 |
| 20260830165656 | 82 | 81 | 3.5 | 6.1 | 0.00 | 0.00 | 0.00 | 62 | 1011.1 |
| 20260830165150 | 81 | 234 | 0.9 | 6.1 | 0.00 | 0.00 | 0.00 | 63 | 1011.1 |
| 20260830164137 | 83 | 56 | 1.7 | 3.5 | 0.00 | 0.00 | 0.00 | 61 | 1011.1 |
| 20260830163631 | 81 | 250 | 0.0 | 3.5 | 0.00 | 0.00 | 0.00 | 63 | 1011.1 |
| 20260830163123 | 80 | 34 | 1.7 | 3.5 | 0.00 | 0.00 | 0.00 | 64 | 1011.1 |
| 20260830162111 | 80 | 9 | 0.0 | 3.5 | 0.00 | 0.00 | 0.00 | 67 | 1011.1 |
| 20260830161605 | 81 | 215 | 0.9 | 2.6 | 0.00 | 0.00 | 0.00 | 65 | 1011.1 |
| 20260830161057 | 81 | 351 | 0.9 | 2.6 | 0.00 | 0.00 | 0.00 | 66 | 1011.1 |
| 20260830160551 | 80 | 12 | 0.0 | 3.5 | 0.00 | 0.00 | 0.00 | 68 | 1011.1 |
| 20260830160045 | 78 | 128 | 0.9 | 3.5 | 0.00 | 0.00 | 0.00 | 70 | 1011.4 |
| 20260830155538 | 79 | 136 | 1.7 | 2.6 | 0.00 | 0.00 | 0.00 | 68 | 1011.1 |
| 20260830155032 | 78 | 24 | 0.0 | 3.5 | 0.00 | 0.00 | 0.00 | 71 | 1011.4 |
| 20260830154018 | 78 | 116 | 3.5 | 5.2 | 0.00 | 0.00 | 0.00 | 70 | 1011.4 |
| 20260830153005 | 76 | 17 | 1.7 | 5.2 | 0.00 | 0.00 | 0.00 | 74 | 1011.1 |
| 20260830152459 | 76 | 169 | 1.7 | 3.5 | 0.00 | 0.00 | 0.00 | 75 | 1011.1 |
| 20260830151953 | 76 | 64 | 1.7 | 5.2 | 0.00 | 0.00 | 0.00 | 75 | 1011.4 |
| 20260830150433 | 77 | 346 | 0.0 | 2.6 | 0.00 | 0.00 | 0.00 | 73 | 1011.4 |
| 20260830145927 | 76 | 11 | 0.9 | 2.6 | 0.00 | 0.00 | 0.00 | 74 | 1011.4 |
| 20260830145419 | 75 | 33 | 1.7 | 1.7 | 0.00 | 0.00 | 0.00 | 75 | 1011.4 |
| 20260830144913 | 73 | 339 | 0.0 | 0.9 | 0.00 | 0.00 | 0.00 | 75 | 1011.4 |
| 20260830143901 | 72 | 325 | 0.0 | 0.9 | 0.00 | 0.00 | 0.00 | 78 | 1011.4 |
| 20260830143354 | 72 | 325 | 0.9 | 0.9 | 0.00 | 0.00 | 0.00 | 78 | 1011.1 |
| 20260830142847 | 71 | 325 | 0.0 | 0.9 | 0.00 | 0.00 | 0.00 | 79 | 1011.1 |
| 20260830142341 | 71 | 325 | 0.0 | 1.7 | 0.00 | 0.00 | 0.00 | 80 | 1011.1 |
| 20260830141834 | 70 | 325 | 0.9 | 1.7 | 0.00 | 0.00 | 0.00 | 80 | 1011.1 |
| 20260830141327 | 70 | 327 | 0.0 | 1.7 | 0.00 | 0.00 | 0.00 | 80 | 1011.1 |
| 20260830140821 | 70 | 328 | 0.9 | 1.7 | 0.00 | 0.00 | 0.00 | 80 | 1011.1 |
| 20260830140315 | 70 | 334 | 0.9 | 1.7 | 0.00 | 0.00 | 0.00 | 80 | 1011.1 |
| 20260830135808 | 70 | 333 | 0.0 | 1.7 | 0.00 | 0.00 | 0.00 | 81 | 1010.7 |
| 20260830135302 | 70 | 3 | 0.9 | 1.7 | 0.00 | 0.00 | 0.00 | 81 | 1010.7 |
| 20260830134755 | 69 | 331 | 0.9 | 1.7 | 0.00 | 0.00 | 0.00 | 82 | 1010.7 |
| 20260830134248 | 69 | 329 | 0.0 | 0.9 | 0.00 | 0.00 | 0.00 | 82 | 1010.7 |
| 20260830133742 | 69 | 328 | 0.0 | 1.7 | 0.00 | 0.00 | 0.00 | 82 | 1010.7 |
| 20260830132729 | 69 | 322 | 0.9 | 0.9 | 0.00 | 0.00 | 0.00 | 82 | 1010.7 |
| 20260830132222 | 69 | 321 | 0.0 | 0.9 | 0.00 | 0.00 | 0.00 | 82 | 1010.4 |
| 20260830131716 | 69 | 321 | 0.0 | 0.9 | 0.00 | 0.00 | 0.00 | 82 | 1010.4 |
| 20260830131209 | 69 | 321 | 0.9 | 0.9 | 0.00 | 0.00 | 0.00 | 82 | 1010.4 |
| 20260830130703 | 69 | 316 | 0.9 | 1.7 | 0.00 | 0.00 | 0.00 | 82 | 1010.1 |
| 20260830130157 | 69 | 314 | 0.0 | 2.6 | 0.00 | 0.00 | 0.00 | 83 | 1010.4 |
| 20260830125649 | 69 | 305 | 0.0 | 2.6 | 0.00 | 0.00 | 0.00 | 83 | 1010.4 |
| 20260830125143 | 69 | 305 | 0.9 | 1.7 | 0.00 | 0.00 | 0.00 | 83 | 1010.1 |
| 20260830124637 | 69 | 306 | 0.0 | 0.0 | 0.00 | 0.00 | 0.00 | 83 | 1010.4 |
| 20260830124131 | 69 | 306 | 0.0 | 0.9 | 0.00 | 0.00 | 0.00 | 83 | 1010.4 |
| 20260830122612 | 69 | 306 | 0.9 | 1.7 | 0.00 | 0.00 | 0.00 | 83 | 1010.1 |
| 20260830122104 | 69 | 349 | 0.0 | 2.6 | 0.00 | 0.00 | 0.00 | 84 | 1010.1 |
| 20260830121558 | 69 | 337 | 0.9 | 2.6 | 0.00 | 0.00 | 0.00 | 84 | 1010.1 |
| 20260830121052 | 70 | 312 | 1.7 | 1.7 | 0.00 | 0.00 | 0.00 | 84 | 1010.1 |
| 20260830120546 | 70 | 326 | 0.9 | 0.9 | 0.00 | 0.00 | 0.00 | 84 | 1010.1 |
| 20260830120038 | 70 | 326 | 0.0 | 0.9 | 0.00 | 0.00 | 0.00 | 84 | 1010.1 |
| 20260830115532 | 70 | 325 | 0.0 | 1.7 | 0.00 | 0.00 | 0.00 | 84 | 1010.1 |
| 20260830115026 | 70 | 325 | 0.0 | 1.7 | 0.00 | 0.00 | 0.00 | 84 | 1010.1 |
| 20260830114519 | 70 | 317 | 0.9 | 1.7 | 0.00 | 0.00 | 0.00 | 84 | 1010.1 |
| 20260830114013 | 70 | 309 | 1.7 | 1.7 | 0.00 | 0.00 | 0.00 | 84 | 1010.1 |
| 20260830113506 | 70 | 312 | 0.0 | 0.9 | 0.00 | 0.00 | 0.00 | 84 | 1010.1 |
| 20260830113000 | 70 | 297 | 0.0 | 0.9 | 0.00 | 0.00 | 0.00 | 85 | 1010.1 |
| 20260830112453 | 70 | 297 | 0.0 | 1.7 | 0.00 | 0.00 | 0.00 | 84 | 1010.1 |
| 20260830111947 | 70 | 297 | 0.9 | 1.7 | 0.00 | 0.00 | 0.00 | 84 | 1010.1 |
| 20260830111441 | 70 | 288 | 0.9 | 1.7 | 0.00 | 0.00 | 0.00 | 84 | 1010.1 |
| 20260830110934 | 70 | 322 | 0.0 | 0.9 | 0.00 | 0.00 | 0.00 | 84 | 1010.1 |
| 20260830110427 | 70 | 322 | 0.9 | 1.7 | 0.00 | 0.00 | 0.00 | 84 | 1009.7 |
| 20260830105921 | 70 | 322 | 0.9 | 1.7 | 0.00 | 0.00 | 0.00 | 84 | 1010.1 |
| 20260830105415 | 70 | 322 | 0.9 | 0.9 | 0.00 | 0.00 | 0.00 | 84 | 1010.1 |
| 20260830104401 | 70 | 317 | 0.0 | 1.7 | 0.00 | 0.00 | 0.00 | 84 | 1010.1 |
| 20260830103349 | 70 | 315 | 0.9 | 0.9 | 0.00 | 0.00 | 0.00 | 85 | 1010.1 |
| 20260830102843 | 70 | 317 | 0.9 | 0.9 | 0.00 | 0.00 | 0.00 | 84 | 1010.1 |
| 20260830102335 | 71 | 338 | 0.9 | 0.9 | 0.00 | 0.00 | 0.00 | 84 | 1010.1 |
| 20260830101829 | 71 | 297 | 0.0 | 0.9 | 0.00 | 0.00 | 0.00 | 84 | 1010.1 |
| 20260830101322 | 71 | 296 | 0.9 | 0.9 | 0.00 | 0.00 | 0.00 | 84 | 1010.1 |
| 20260830100817 | 71 | 296 | 0.0 | 0.9 | 0.00 | 0.00 | 0.00 | 84 | 1010.1 |
| 20260830100309 | 71 | 296 | 0.0 | 0.9 | 0.00 | 0.00 | 0.00 | 84 | 1010.1 |
| 20260830095257 | 71 | 295 | 0.0 | 1.7 | 0.00 | 0.00 | 0.00 | 84 | 1010.1 |
| 20260830094751 | 71 | 309 | 0.9 | 1.7 | 0.00 | 0.00 | 0.00 | 84 | 1010.1 |
| 20260830093737 | 71 | 263 | 0.9 | 1.7 | 0.00 | 0.00 | 0.00 | 84 | 1010.1 |
| 20260830093231 | 71 | 284 | 0.9 | 1.7 | 0.00 | 0.00 | 0.00 | 84 | 1010.1 |
| 20260830092218 | 72 | 209 | 0.9 | 1.7 | 0.00 | 0.00 | 0.00 | 84 | 1010.1 |
| 20260830091711 | 72 | 208 | 0.0 | 1.7 | 0.00 | 0.00 | 0.00 | 83 | 1010.1 |
| 20260830091205 | 72 | 212 | 0.9 | 1.7 | 0.00 | 0.00 | 0.00 | 83 | 1010.1 |
| 20260830090152 | 72 | 246 | 0.0 | 3.5 | 0.00 | 0.00 | 0.00 | 82 | 1010.1 |
| 20260830085645 | 72 | 180 | 1.7 | 3.5 | 0.00 | 0.00 | 0.00 | 82 | 1010.1 |
| 20260830084126 | 72 | 52 | 1.7 | 1.7 | 0.00 | 0.00 | 0.00 | 82 | 1009.7 |
| 20260830083113 | 72 | 357 | 0.0 | 1.7 | 0.00 | 0.00 | 0.00 | 82 | 1009.7 |